Location: Newark
(41.8083°N, 72.2500°W)
Time: 20:31:30
(UTC+00:00)

deb Explorer IX - Pass Details

Date: 06 December 2021
Orbit: 544 x 1082 km, 38.8° (Epoch: 16 January)

Event Time Altitude Azimuth Distance (km) Brightness Sun altitude
Rises 19:35:13 0° 267° (W) 2,729 ? 14.0°
Reaches altitude 10° 19:38:45 10° 236° (SW) 1,802 ? 13.5°
Maximum altitude 19:40:22 12° 213° (SSW) 1,669 ? 13.3°
Drops below altitude 10° 19:41:58 10° 189° (S) 1,801 ? 13.1°
Sets 19:45:30 0° 158° (SSE) 2,726 ? 12.7°
